Weather Service Report


689 
ASUS43 KTOP 260808
RWRKS 

WEATHER ROUNDUP FOR KANSAS
NATIONAL WEATHER SERVICE GOODLAND KS
300 AM CDT MON JUN 26 2017

NOTE:  "FAIR" INDICATES FEW OR NO CLOUDS BELOW 12,000 FEET WITH NO
SIGNIFICANT WEATHER AND/OR OBSTRUCTIONS TO VISIBILITY.

KSZ001>006-013>018-027>032-041>047-260900-
NORTHWEST KANSAS
  
CITY           SKY/WX    TMP DP  RH WIND       PRES   REMARKS
GOODLAND       CLOUDY    57  57 100 S8        30.29S FOG              
HAYS           CLOUDY    58  56  93 CALM      30.26F                  
HILL CITY      CLEAR     57  55  93 SW6       30.26F                  
RUSSELL        CLOUDY    59  55  87 SW3       30.24S                  
$$

KSZ061>065-074>080-084>089-260900-
SOUTHWEST KANSAS
  
CITY           SKY/WX    TMP DP  RH WIND       PRES   REMARKS
DODGE CITY     MOCLDY    60  58  92 SE8       30.26F                  
ELKHART          N/A     58  51  78 E2          N/A                   
GARDEN CITY    CLOUDY    60  58  92 E9        30.27S                  
GREAT BEND     CLOUDY    60  56  86 CALM      30.26S                  
LIBERAL        CLOUDY    62  59  90 E10       30.25F                  
PRATT          MOCLDY    59  52  78 E5        30.25F                  
$$

KSZ066>073-081>083-090>101-260900-
SOUTHEAST KANSAS
  
CITY           SKY/WX    TMP DP  RH WIND       PRES   REMARKS
CHANUTE          N/A    N/A N/A N/A MISG      30.24S                  
COFFEYVILLE    CLOUDY    64  57  78 NE3       30.21F                  
HUTCHINSON     CLOUDY    59  55  87 CALM      30.24S                  
MEDICINE LODGE   N/A     60  54  80 NE5       30.23F                  
NEWTON         LGT RAIN  60  55  83 E3        30.25S                  
PARSONS        CLOUDY    65  56  72 NE5       30.24R                  
WICHITA INTL   MOCLDY    63  54  72 E5        30.23S                  
WICHITA JABRA  CLOUDY    60  57  89 E3        30.23S                  
WICHITA MCCONL CLOUDY    64  53  68 SE7       30.23S                  
WINFIELD       CLOUDY    65  54  67 E6        30.24R                  
$$

KSZ007>012-019>026-033>040-048>060-102>105-260900-
NORTHEAST KANSAS
  
CITY           SKY/WX    TMP DP  RH WIND       PRES   REMARKS
CONCORDIA      CLOUDY    57  54  89 CALM      30.23F                  
EMPORIA        CLOUDY    61  60  97 CALM      30.25S                  
LAWRENCE       CLOUDY    53  53 100 CALM      30.24R                  
MANHATTAN      CLOUDY    57  56  96 CALM      30.23S                  
MARYSVILLE     CLEAR     52  50  93 S3        30.21F                  
OLATHE IND     PTCLDY    54  53  97 CALM      30.24F                  
OLATHE EXE       N/A     53  53 100 CALM      30.23F                  
SALINA         CLOUDY    62  57  83 SW7       30.23F                  
TOPEKA BILLARD CLOUDY    56  55  97 S3        30.23S                  
TOPEKA FORBES  CLOUDY    57  56  96 CALM      30.23S                  
$$
  

Return to Home page


Western Regional Climate Center, wrcc@dri.edu